Location: Härggis
(46.9540°N, 8.4897°E)
Time: 19:59:05
(UTC+00:00)

Cosmos 962 Rocket - Pass Details

Date: 27 May 2022
Orbit: 950 x 1000 km, 82.9° (Epoch: 02 July)

Event Time Altitude Azimuth Distance (km) Brightness Sun altitude
Rises 02:19:06 0° 349° (N) 3,644 8.1 -11.1°
Reaches altitude 10° 02:21:37 10° 347° (NNW) 2,691 7.3 -10.8°
Maximum altitude 02:27:42 69° 266° (W) 1,016 4.5 -10.1°
Drops below altitude 10° 02:33:45 10° 184° (S) 2,668 6.3 -9.4°
Enters shadow 02:36:07 - 182° (S) 3,567 7.0 -9.1°
